STARLINK-3131 (49427 NORAD) Tracking and Keplerian Element Data

This shows tracking and keplerian element data for the satellite.

Feedback or suggestion? Click here.




ElementValue
Catalog49427
NameSTARLINK-3131
Epoch Orbit367
Epoch Day15.91668981
Epoch Year2022
RAAN185.3578
Inclination53.2173
Eccentricity0.0001419
Argument of Perigee63.941
Mean Anonmoly95.7673
Mean Motion15.25585658
Decay Rate-0.00651862
L11 49427U 21104V 22015.91668981 -.00651862 00000+0 -27278-1 0 9998
L22 49427 53.2173 185.3578 0001419 63.9410 95.7673 15.25585658 3677

Live tracking and technical data element details for STARLINK-3131 (NORAD 49427). STARLINK-3131 can be tracked NOW for your location showing map with azimuth and elevation plus other details from your city location.

Track the satellite on the map from your city or location and see movement details for azimuth, elevation, latitude, longitude, range, height, and movement on the map or in text.







IsCatalogInMostPopularTable: catalog: 49427, numindb: 5
Update: records affected: 1



GetName: 49427 STARLINK-3131

Hit Count: updated at: Thu, 20 Jan 2022 17:32:20 GMT